Location: Newark
(25.0000°N, 73.5000°E)
Time: 02:22:58
(UTC+00:00)

NOAA 15 - Pass Details

Date: 26 February 2020
Orbit: 797 x 813 km, 98.7° (Epoch: 08 April)

Event Time Altitude Azimuth Distance (km) Brightness Sun altitude
Rises 14:03:56 0° 173° (S) 3,314 7.8 -13.8°
Reaches altitude 10° 14:06:17 10° 176° (S) 2,388 7.1 -14.4°
Maximum altitude 14:11:31 66° 258° (WSW) 884 5.0 -15.6°
Drops below altitude 10° 14:16:48 10° 341° (NNW) 2,401 7.3 -16.7°
Sets 14:19:10 0° 344° (NNW) 3,335 8.0 -17.3°
